Location: Newark
(34.6283°N, 36.0776°E)
Time: 08:26:57
(UTC+00:00)

A-11 Canister half - Pass Details

Date: 19 September 2019
Orbit: 1527 x 1682 km, 47.3° (Epoch: 14 October)

Event Time Altitude Azimuth Distance (km) Brightness Sun altitude
Rises 08:59:17 0° 303° (WNW) 4,836 11.4 56.2°
Reaches altitude 10° 09:02:25 10° 300° (WNW) 3,867 11.0 56.3°
Maximum altitude 09:12:04 59° 224° (SW) 1,874 10.9 56.6°
Drops below altitude 10° 09:21:55 10° 148° (SSE) 3,932 11.8 56.8°
Sets 09:25:09 0° 145° (SE) 4,920 12.1 56.9°
